Location: Heidgraben
(53.7081°N, 9.6576°E)
Time: 04:21:38
(UTC+00:00)

Cosmos 2366 rocket - Pass Details

Date: 05 July 2020
Orbit: 954 x 998 km, 82.9° (Epoch: 06 August)

Event Time Altitude Azimuth Distance (km) Brightness Sun altitude
Exits shadow 22:56:31 18° 175° (S) 2,219 5.2 -13.4°
Maximum altitude 23:01:19 69° 95° (E) 1,064 4.2 -13.4°
Drops below altitude 10° 23:07:38 10° 14° (NNE) 2,771 7.6 -13.5°
Sets 23:10:10 0° 13° (NNE) 3,720 8.6 -13.5°
